x

9442396 - La Push, Wa (lapw1) Weather Station

3:36 - Mon 25th Sep 2017 All times are PDT. -7 hours from GMT.

  • Wind
    8mph, 17mph gusts
  • Sea Temp 56°f
  • Air Temp 59°f
  • Sea Pressure 1018.5mb
  • 9442396 - La Push, Wa
  • 9442396 - La Push, Wa

More Historic Weather Station data

Upgrade to MSW Pro to gain access to the past 30 days of data for over 8000 Wavebouys and Weather Stations around the globe.

Join

Comparision Forecast

View Surf forecast
   
lun. 09/25 3:36 8 17 mph 1018.5mb 56f 59f
3:30 9 16 mph 1018.6mb 56f 59f
3:24 10 16 mph 1018.6mb 55f 59f
3:18 10 16 mph 1018.6mb 55f 58f
3:12 14 20 mph 1018.5mb 55f 58f
3:06 11 18 mph 1018.6mb 55f 59f
3:00 9 14 mph 1018.6mb 55f 58f
2:36 8 15 mph 1018.9mb 56f 59f
2:30 9 14 mph 1019mb 55f 59f
2:24 7 14 mph 1019mb 55f 59f
2:18 8 14 mph 1019mb 55f 59f
2:12 7 11 mph 1018.9mb 55f 59f
2:06 8 13 mph 1018.9mb 55f 59f
2:00 8 13 mph 1018.8mb 55f 59f
1:36 7 11 mph 1018.8mb 55f 59f
1:30 5 13 mph 1018.7mb 55f 59f
1:24 8 13 mph 1018.7mb 55f 59f
1:18 10 17 mph 1018.7mb 55f 59f
1:12 8 14 mph 1018.7mb 55f 59f
1:06 7 11 mph 1018.7mb 55f 59f
1:00 6 10 mph 1018.7mb 55f 59f
12:36 8 15 mph 1018.6mb 56f 59f
12:30 8 16 mph 1018.5mb 56f 59f
12:24 9 15 mph 1018.5mb 56f 59f
12:18 8 13 mph 1018.5mb 56f 59f
12:12 7 14 mph 1018.5mb 56f 59f
12:06 8 10 mph 1018.5mb 56f 58f
12:00 8 14 mph 1018.5mb 56f 58f
11:36 8 15 mph 1018.4mb 56f 58f
11:30 8 16 mph 1018.4mb 56f 58f
11:24 8 15 mph 1018.5mb 56f 58f
11:18 7 13 mph 1018.5mb 56f 58f
11:12 8 13 mph 1018.6mb 56f 58f
11:06 5 15 mph 1018.6mb 56f 58f
11:00 6 14 mph 1018.6mb 56f 57f
10:36 6 10 mph 1018.6mb 56f 57f
10:30 7 14 mph 1018.6mb 56f 57f
10:24 6 13 mph 1018.6mb 56f 57f
10:18 8 11 mph 1018.6mb 56f 57f
10:12 6 10 mph 1018.5mb 56f 57f
10:06 5 10 mph 1018.5mb 56f 57f
10:00 6 10 mph 1018.5mb 56f 57f
9:36 2 6 mph 1018.7mb 56f 56f
9:30 3 5 mph 1018.7mb 56f 56f
9:24 2 6 mph 1018.8mb 56f 56f
9:18 3 7 mph 1018.7mb 56f 56f
9:12 5 9 mph 1018.7mb 56f 55f
9:06 3 5 mph 1018.7mb 56f 55f
9:00 5 7 mph 1018.7mb 56f 55f
8:36 3 6 mph 1018.7mb 56f 55f
8:30 3 6 mph 1018.7mb 56f 55f
8:24 3 6 mph 1018.6mb 56f 55f
8:18 3 6 mph 1018.6mb 56f 54f
8:12 3 5 mph 1018.6mb 56f 54f
8:06 5 7 mph 1018.6mb 56f 54f
8:00 5 7 mph 1018.6mb 56f 54f
7:36 3 6 mph 1018.6mb 56f 54f
7:30 5 6 mph 1018.6mb 56f 54f
7:24 5 6 mph 1018.6mb 56f 54f
7:18 5 7 mph 1018.6mb 56f 54f
7:12 5 6 mph 1018.6mb 56f 54f
7:06 5 6 mph 1018.6mb 56f 54f
7:00 3 6 mph 1018.6mb 56f 54f
6:36 5 7 mph 1018.6mb 56f 54f
6:30 6 7 mph 1018.6mb 56f 54f
6:24 6 7 mph 1018.5mb 56f 54f
6:18 6 8 mph 1018.5mb 56f 54f
6:12 6 9 mph 1018.6mb 56f 54f
6:06 6 8 mph 1018.6mb 56f 54f
6:00 6 8 mph 1018.5mb 56f 54f
5:36 7 9 mph 1018.7mb 56f 54f
5:30 6 9 mph 1018.7mb 56f 54f
5:24 7 9 mph 1018.8mb 56f 54f
5:18 6 7 mph 1018.8mb 56f 54f
5:12 6 7 mph 1018.9mb 56f 54f
5:06 6 8 mph 1019mb 56f 54f
5:00 5 7 mph 1019mb 56f 54f
4:36 6 8 mph 1018.9mb 56f 54f
4:30 6 8 mph 1019mb 56f 54f
4:24 6 8 mph 1019.1mb 56f 54f
4:18 6 8 mph 1019mb 56f 54f
4:12 6 8 mph 1019.1mb 56f 54f
4:06 6 9 mph 1019.1mb 56f 54f
4:00 6 9 mph 1019.1mb 56f 54f
3:36 5 7 mph 1019.3mb 56f 54f
3:30 5 6 mph 1019.3mb 56f 54f
3:24 5 6 mph 1019.4mb 56f 54f
3:18 5 6 mph 1019.3mb 56f 54f
3:12 5 6 mph 1019.5mb 56f 54f
3:06 3 5 mph 1019.5mb 56f 54f
3:00 3 3 mph 1019.5mb 56f 54f
2:36 3 3 mph 1019.4mb 56f 54f
2:30 2 3 mph 1019.5mb 56f 54f
2:24 2 3 mph 1019.4mb 56f 54f
2:18 3 3 mph 1019.5mb 56f 54f
2:12 2 3 mph 1019.5mb 56f 54f
2:06 2 2 mph 1019.6mb 56f 54f
2:00 1 2 mph 1019.7mb 56f 54f
1:36 1 2 mph 1019.8mb 56f 54f
1:30 2 3 mph 1019.7mb 56f 54f
1:24 2 2 mph 1019.6mb 56f 54f
1:18 1 2 mph 1019.6mb 56f 55f
1:12 1 2 mph 1019.6mb 56f 54f
1:06  -  1 mph 1019.6mb 56f 55f
1:00  -  0 mph 1019.7mb 56f 54f
12:36 3 6 mph 1019.6mb 56f 55f
12:30 3 5 mph 1019.6mb 56f 55f
12:24 2 5 mph 1019.6mb 56f 55f
12:18 2 5 mph 1019.7mb 56f 55f
12:12 2 3 mph 1019.7mb 56f 55f
12:06 1 3 mph 1019.6mb 56f 55f
12:00 3 5 mph 1019.6mb 56f 55f
dim. 09/24 11:36 3 3 mph 1019.9mb 56f 55f
11:30 2 2 mph 1020mb 56f 55f
11:24 1 2 mph 1020mb 56f 55f
11:18 2 3 mph 1019.9mb 56f 55f
11:12 2 2 mph 1019.9mb 56f 55f
11:06 2 3 mph 1020mb 56f 55f
11:00  -  3 mph 1020.1mb 57f 55f
10:36 2 3 mph 1020.2mb 57f 56f
10:30 1 3 mph 1020.2mb 57f 55f
10:24 2 3 mph 1020.4mb 57f 56f
10:18 1 2 mph 1020.3mb 57f 56f
10:12 2 3 mph 1020.2mb 57f 56f
10:06 1 2 mph 1020.2mb 57f 56f
10:00 2 2 mph 1020.3mb 57f 56f
9:36 2 5 mph 1020.3mb 57f 56f
9:30 5 6 mph 1020.4mb 57f 56f
9:24 3 6 mph 1020.3mb 57f 56f
9:18 5 6 mph 1020.5mb 56f 56f
9:12 5 6 mph 1020.5mb 56f 56f
9:06 5 7 mph 1020.4mb 56f 56f
9:00 6 7 mph 1020.5mb 56f 56f
8:36 7 8 mph 1020.5mb 56f 56f
8:30 3 8 mph 1020.4mb 56f 56f
8:24 7 8 mph 1020.5mb 56f 56f
8:18 6 6 mph 1020.4mb 56f 56f
8:12 6 7 mph 1020.4mb 56f 56f
8:06 6 8 mph 1020.3mb 56f 56f
8:00 6 7 mph 1020.4mb 56f 56f
7:36 8 9 mph 1020.4mb 56f 56f
7:30 7 9 mph 1020.3mb 56f 56f
7:24 7 10 mph 1020.3mb 56f 56f
7:18 9 11 mph 1020.4mb 56f 56f
7:12 9 11 mph 1020.4mb 55f 56f
7:06 9 13 mph 1020.4mb 55f 56f
7:00 10 11 mph 1020.4mb 55f 56f
6:36 7 10 mph 1020.4mb 55f 56f
6:30 8 10 mph 1020.4mb 55f 56f
6:24 10 13 mph 1020.5mb 55f 56f
6:18 9 10 mph 1020.5mb 55f 56f
6:12 8 11 mph 1020.5mb 55f 56f
6:06 10 11 mph 1020.5mb 55f 56f
6:00 9 13 mph 1020.5mb 55f 56f
5:36 9 11 mph 1020.6mb 55f 56f
5:30 10 11 mph 1020.6mb 55f 56f
5:24 9 11 mph 1020.6mb 55f 56f
5:18 9 11 mph 1020.5mb 55f 56f
5:12 9 11 mph 1020.5mb 55f 56f
5:06 8 11 mph 1020.6mb 55f 56f
5:00 10 11 mph 1020.7mb 55f 56f
4:54 9 10 mph 1020.7mb 55f 56f
4:48 7 8 mph 1020.7mb 55f 56f
4:36 8 9 mph 1020.8mb 55f 56f
4:30 6 7 mph 1020.7mb 55f 56f
4:24 6 8 mph 1020.8mb 55f 56f
4:18 7 10 mph 1020.9mb 55f 56f
4:12 8 9 mph 1020.9mb 55f 56f
4:06 8 9 mph 1021mb 55f 56f
4:00 8 10 mph 1021.2mb 55f 56f
3:54 8 11 mph 1021.3mb 55f 56f
3:48 8 10 mph 1021.3mb 55f 56f
3:36 10 11 mph 1021.5mb 55f 56f
3:30 9 11 mph 1021.5mb 55f 55f
3:24 10 13 mph 1021.6mb 55f 55f
3:18 9 13 mph 1021.6mb 55f 55f
3:12 10 14 mph 1021.6mb 55f 55f
3:06 13 14 mph 1021.6mb 55f 55f
3:00 11 13 mph 1021.6mb 55f 55f
2:54 10 11 mph 1021.6mb 55f 55f
2:48 7 9 mph 1021.5mb 55f 55f
2:36 6 10 mph 1021.4mb 55f 55f
2:30 8 10 mph 1021.6mb 55f 55f
2:24 9 11 mph 1021.7mb 55f 55f
2:18 10 13 mph 1021.8mb 55f 55f
2:12 11 14 mph 1021.7mb 55f 56f
2:06 10 13 mph 1021.7mb 55f 56f
2:00 10 11 mph 1021.6mb 54f 56f
1:54 5 6 mph 1021.3mb 54f 56f
1:48 2 3 mph 1021.2mb 54f 56f
1:36 2 5 mph 1021.5mb 55f 56f
1:30 5 6 mph 1021.8mb 55f 56f
1:24 6 6 mph 1021.9mb 55f 56f
1:18 6 7 mph 1021.9mb 55f 56f
1:12 7 9 mph 1021.9mb 55f 56f
1:06 8 10 mph 1021.9mb 55f 56f
1:00 7 9 mph 1021.9mb 55f 56f
12:54 6 7 mph 1021.9mb 55f 56f
12:48 6 7 mph 1021.9mb 55f 56f
12:36 7 8 mph 1022mb 55f 56f
12:30 6 9 mph 1021.9mb 55f 56f
12:24 7 8 mph 1021.8mb 55f 56f
12:18 6 8 mph 1021.8mb 55f 56f
12:12 6 7 mph 1021.8mb 55f 55f
12:06 6 7 mph 1021.8mb 55f 55f
12:00 5 6 mph 1021.8mb 55f 55f
11:54 5 5 mph 1021.8mb 55f 55f
11:48 5 6 mph 1021.8mb 55f 55f
11:36 5 5 mph 1021.8mb 55f 55f
11:30 5 5 mph 1021.7mb 55f 55f
11:24 3 5 mph 1021.8mb 55f 55f
11:18 3 5 mph 1021.8mb 55f 55f
11:12 3 5 mph 1021.7mb 55f 55f
11:06 3 5 mph 1021.6mb 55f 54f
11:00 3 5 mph 1021.5mb 55f 55f
10:54 2 3 mph 1021.4mb 55f 55f
10:48  -  1 mph 1021.4mb 55f 54f
10:36 2 5 mph 1021.3mb 55f 54f
10:30 1 6 mph 1021.3mb 55f 54f
10:24 3 5 mph 1021.2mb 55f 54f
10:18 2 6 mph 1021.3mb 55f 54f
10:12 2 5 mph 1021.3mb 55f 53f
10:06 5 6 mph 1021.3mb 55f 53f
10:00 6 6 mph 1021.3mb 55f 53f
9:54 5 6 mph 1021.5mb 55f 53f
9:48 3 6 mph 1021.6mb 55f 53f
9:36 3 6 mph 1021.5mb 55f 52f
9:30 6 8 mph 1021.4mb 55f 52f
9:24 5 7 mph 1021.4mb 55f 52f
9:18 5 7 mph 1021.5mb 55f 52f
9:12 6 7 mph 1021.5mb 55f 52f
9:06 6 6 mph 1021.5mb 56f 51f
9:00 5 6 mph 1021.5mb 56f 51f
8:54 5 6 mph 1021.4mb 56f 51f
8:48 5 6 mph 1021.4mb 56f 51f
8:36 3 6 mph 1021.4mb 56f 51f
8:30 3 5 mph 1021.3mb 56f 51f
8:24 3 6 mph 1021.3mb 55f 51f
8:18 5 5 mph 1021.2mb 55f 51f
8:12 3 5 mph 1021.2mb 55f 51f
8:06 3 6 mph 1021.2mb 55f 50f
8:00 5 6 mph 1021.1mb 56f 50f
7:54 5 6 mph 1021.2mb 56f 50f
7:48 2 5 mph 1021.3mb 55f 50f
7:36 5 6 mph 1021.4mb 55f 50f
7:30 5 6 mph 1021.4mb 55f 51f
7:24 5 6 mph 1021.3mb 55f 50f
7:18 3 5 mph 1021.3mb 55f 50f
7:12 3 5 mph 1021.2mb 55f 50f
7:06 3 6 mph 1021.1mb 55f 50f
7:00 2 5 mph 1021.1mb 55f 50f
6:54 3 6 mph 1020.9mb 55f 50f
6:48 5 7 mph 1020.8mb 55f 51f
6:36 5 5 mph 1020.9mb 55f 51f
6:30 3 5 mph 1020.9mb 55f 51f
6:24 2 3 mph 1020.9mb 55f 51f
6:18 2 3 mph 1020.7mb 55f 51f
6:12 2 5 mph 1020.6mb 55f 51f
6:06 3 6 mph 1020.6mb 55f 51f
6:00 5 6 mph 1020.6mb 55f 52f
5:54 3 3 mph 1020.8mb 55f 53f
5:48 2 5 mph 1021mb 55f 54f
5:36 6 7 mph 1021.2mb 55f 53f
5:30 2 5 mph 1021.2mb 55f 53f
5:24 2 5 mph 1021.2mb 55f 52f
5:18 2 3 mph 1021.2mb 55f 52f
5:12 3 7 mph 1021.3mb 55f 50f
5:06 1 5 mph 1021.2mb 55f 50f
5:00 3 11 mph 1021mb 55f 50f
4:54 9 11 mph 1020.7mb 55f 50f
4:48 7 10 mph 1020.7mb 55f 50f
4:36 9 14 mph 1020.5mb 55f 50f
4:30 10 14 mph 1020.5mb 55f 50f
4:24 9 13 mph 1020.5mb 55f 50f
4:18 9 13 mph 1020.5mb 55f 50f
4:12 10 14 mph 1020.4mb 55f 50f
4:06 9 14 mph 1020.5mb 55f 50f
4:00 10 13 mph 1020.4mb 55f 50f
3:54 8 11 mph 1020.5mb 55f 50f
3:48 8 11 mph 1020.5mb 55f 50f
3:36 6 8 mph 1020.7mb 55f 50f
3:30 6 10 mph 1020.8mb 55f 49f
3:24 7 10 mph 1020.9mb 55f 50f
3:18 6 8 mph 1021.2mb 55f 50f
3:12 6 7 mph 1021.4mb 55f 49f
3:06 3 6 mph 1021.4mb 55f 49f
3:00 2 8 mph 1021.4mb 55f 49f
2:54 6 7 mph 1021.3mb 55f 49f
2:48 5 7 mph 1021.3mb 55f 49f
2:36 7 9 mph 1021.1mb 55f 49f
2:30 7 9 mph 1021.1mb 55f 49f
2:24 7 9 mph 1021.1mb 55f 49f
2:18 6 7 mph 1021.1mb 55f 49f
2:12 6 6 mph 1021.2mb 55f 50f
2:06 5 6 mph 1021.2mb 55f 50f
2:00 5 5 mph 1021.3mb 55f 50f
1:54 5 5 mph 1021.3mb 55f 49f
1:48 3 5 mph 1021.3mb 55f 50f
1:36 5 6 mph 1021.3mb 55f 49f
1:30 5 6 mph 1021.3mb 55f 49f
1:24 3 6 mph 1021.3mb 55f 49f
1:18 5 7 mph 1021.1mb 55f 50f
1:12 6 9 mph 1021mb 55f 50f
1:06 6 8 mph 1020.9mb 55f 50f
1:00 2 7 mph 1021mb 55f 50f
12:54 7 8 mph 1021mb 55f 50f
12:48 7 8 mph 1021mb 55f 51f
12:36 6 7 mph 1020.9mb 55f 50f
12:30 6 8 mph 1020.9mb 55f 51f
12:24 6 7 mph 1020.9mb 55f 50f
12:18 5 7 mph 1020.9mb 55f 50f
12:12 3 5 mph 1020.8mb 55f 50f
12:06 2 3 mph 1020.9mb 55f 50f
12:00 1 2 mph 1021mb 55f 50f
sam. 09/23 11:54  -  2 mph 1021mb 55f 51f
11:48 1 2 mph 1020.9mb 55f 51f
11:36 1 2 mph 1020.8mb 56f 51f
11:30 2 3 mph 1020.8mb 56f 51f
11:24 2 6 mph 1020.8mb 56f 52f
11:18 5 8 mph 1020.7mb 56f 52f
11:12 6 8 mph 1020.6mb 56f 52f
11:06 6 7 mph 1020.6mb 56f 52f
11:00 6 6 mph 1020.5mb 56f 52f
10:54 5 6 mph 1020.5mb 56f 52f
10:48 3 6 mph 1020.4mb 56f 52f
10:36 6 7 mph 1020.3mb 56f 52f
10:30 6 8 mph 1020.2mb 56f 52f
10:24 8 9 mph 1020.2mb 57f 52f
10:18 7 9 mph 1020.2mb 57f 52f
10:12 7 8 mph 1020.2mb 57f 52f
10:06 6 7 mph 1020.3mb 57f 52f
10:00 5 8 mph 1020.3mb 57f 53f
9:54 7 8 mph 1020.3mb 57f 52f
9:48 6 8 mph 1020.3mb 57f 52f
9:36 3 5 mph 1020.2mb 58f 53f
9:30 5 6 mph 1020.3mb 58f 53f
9:24 3 5 mph 1020.3mb 58f 53f
9:18 3 5 mph 1020.4mb 58f 53f
9:12 3 3 mph 1020.4mb 58f 54f
9:06 2 2 mph 1020.3mb 58f 53f
9:00 2 3 mph 1020.2mb 58f 53f
8:54 2 2 mph 1020.3mb 58f 53f
8:36  -  1 mph 1020.2mb 57f 54f
8:30 1 2 mph 1020.2mb 56f 54f
8:24 1 1 mph 1020.2mb 56f 55f
8:18  -  1 mph 1020.2mb 56f 55f
8:12 1 2 mph 1020.2mb 56f 55f
8:06 2 2 mph 1020.1mb 55f 55f
8:00 2 2 mph 1020.1mb 55f 55f
7:54 2 2 mph 1020mb 55f 55f
7:48 1 1 mph 1019.8mb 55f 55f
7:36 2 2 mph 1019.8mb 55f 56f
7:30 1 3 mph 1019.8mb 55f 56f
7:24 2 2 mph 1019.7mb 55f 57f
7:18 2 3 mph 1019.7mb 55f 58f
7:12  -  5 mph 1019.8mb 55f 58f
7:06 3 5 mph 1020mb 55f 58f
7:00 3 3 mph 1019.9mb 55f 58f
6:54 3 5 mph 1019.9mb 55f 58f
6:48 5 6 mph 1020mb 55f 58f
6:36 5 5 mph 1019.9mb 55f 58f
6:30 5 6 mph 1019.9mb 55f 58f
6:24 5 5 mph 1020mb 55f 58f
6:18 5 5 mph 1019.9mb 54f 58f
6:12 3 3 mph 1019.9mb 54f 59f
6:06 2 3 mph 1019.8mb 54f 59f
6:00 2 2 mph 1019.7mb 54f 59f
5:54 2 3 mph 1019.8mb 54f 59f
5:36 2 3 mph 1019.9mb 54f 58f
5:30 3 5 mph 1019.9mb 54f 57f
5:24 5 6 mph 1019.9mb 54f 57f
5:18 5 6 mph 1020mb 54f 57f
5:12 6 6 mph 1020mb 54f 57f
5:06 5 6 mph 1020mb 54f 58f
5:00 3 6 mph 1020mb 55f 58f
4:54 6 6 mph 1020.1mb 54f 58f
4:48 6 6 mph 1020.2mb 54f 58f
4:36 5 5 mph 1020.1mb 54f 58f
4:30 3 5 mph 1020mb 54f 58f
4:24 3 3 mph 1020.1mb 54f 58f
4:18 3 5 mph 1020.1mb 54f 58f
4:12 3 5 mph 1020.1mb 54f 58f
4:06 3 3 mph 1020.1mb 54f 58f
4:00 3 3 mph 1020.1mb 54f 58f
3:54 2 3 mph 1020.1mb 54f 58f
3:36 3 5 mph 1020.1mb 54f 58f
3:30 2 3 mph 1020.1mb 54f 58f
3:24 3 5 mph 1020.1mb 54f 58f
3:18 3 3 mph 1020mb 54f 58f
3:12 2 3 mph 1019.9mb 54f 58f
3:06 3 5 mph 1019.9mb 54f 57f
3:00 3 5 mph 1019.8mb 54f 58f
2:54 2 3 mph 1019.7mb 54f 58f
2:48 2 3 mph 1019.7mb 54f 58f
2:36 5 7 mph 1019.8mb 54f 58f
2:30 5 7 mph 1019.8mb 54f 57f
2:24 6 8 mph 1019.9mb 54f 57f
2:18 6 8 mph 1019.8mb 54f 58f
2:12 7 9 mph 1019.7mb 54f 58f
2:06 7 8 mph 1019.6mb 54f 58f
2:00 7 8 mph 1019.7mb 54f 58f
1:54 6 8 mph 1019.8mb 54f 58f
1:48 6 8 mph 1019.8mb 54f 58f
1:36 6 8 mph 1019.8mb 54f 58f
1:30 7 9 mph 1019.8mb 54f 58f
1:24 7 9 mph 1019.8mb 54f 58f
1:18 7 9 mph 1019.9mb 54f 58f
1:12 7 10 mph 1019.7mb 54f 58f
1:06 7 9 mph 1019.6mb 54f 58f
1:00 8 10 mph 1019.5mb 54f 58f
12:54 9 10 mph 1019.5mb 54f 58f
12:48 8 11 mph 1019.5mb 54f 58f
12:36 8 10 mph 1019.5mb 54f 58f
12:30 9 10 mph 1019.4mb 54f 58f
12:24 8 10 mph 1019.4mb 54f 58f
12:18 8 10 mph 1019.3mb 54f 58f
12:12 9 13 mph 1019.3mb 54f 58f
12:06 9 11 mph 1019.2mb 54f 59f
12:00 9 13 mph 1019.2mb 54f 59f
11:54 8 10 mph 1019.2mb 54f 58f
11:48 8 10 mph 1019.2mb 54f 58f
11:36 7 9 mph 1019.2mb 54f 58f
11:30 6 8 mph 1019.2mb 54f 58f
11:24 7 8 mph 1019.2mb 54f 58f
11:18 7 9 mph 1019.2mb 54f 58f
11:12 7 9 mph 1019.1mb 54f 58f
11:06 7 10 mph 1019mb 54f 57f
11:00 6 8 mph 1018.9mb 54f 57f
10:54 7 10 mph 1019mb 54f 57f
10:48 8 11 mph 1018.9mb 54f 57f
10:36 2 3 mph 1018.9mb 55f 58f
10:30  -  6 mph 1018.9mb 55f 57f
10:24 2 5 mph 1018.9mb 55f 57f
10:18 5 8 mph 1018.9mb 55f 56f
10:12 5 7 mph 1018.9mb 55f 56f
10:06 6 8 mph 1018.9mb 55f 55f
10:00 6 8 mph 1018.9mb 55f 55f
9:54 5 6 mph 1018.9mb 55f 55f
9:48 6 6 mph 1019mb 55f 54f
9:36 5 5 mph 1019mb 55f 54f
9:30 3 5 mph 1019mb 55f 53f
9:24 3 7 mph 1019mb 55f 53f
9:18 5 7 mph 1018.9mb 55f 53f
9:12 6 8 mph 1018.9mb 55f 53f
9:06 5 6 mph 1018.8mb 55f 53f
9:00 5 6 mph 1018.8mb 55f 52f
8:54 5 7 mph 1018.6mb 55f 52f
8:48 6 8 mph 1018.5mb 55f 52f
8:36 7 9 mph 1018.3mb 55f 52f
8:30 7 8 mph 1018.2mb 56f 52f
8:24 6 9 mph 1018.2mb 55f 52f
8:18 6 8 mph 1018.2mb 56f 52f
8:12 6 9 mph 1018.3mb 56f 52f
8:06 7 8 mph 1018.2mb 56f 52f
8:00 5 7 mph 1018.1mb 56f 52f
7:54 6 6 mph 1018.2mb 56f 52f
7:48 6 7 mph 1018.2mb 55f 51f
7:36 6 6 mph 1018.1mb 55f 51f
7:30 5 6 mph 1018.1mb 56f 51f
7:24 5 6 mph 1018.1mb 55f 51f
7:18 5 7 mph 1018.1mb 55f 51f
7:12 5 6 mph 1018.2mb 55f 51f
7:06 5 7 mph 1018.1mb 55f 51f
7:00 5 6 mph 1018.1mb 55f 51f
6:54 6 7 mph 1017.9mb 55f 52f
6:48 6 6 mph 1017.8mb 55f 51f
6:36 3 7 mph 1017.7mb 55f 52f
6:30 6 7 mph 1017.7mb 55f 52f
6:24 3 6 mph 1017.5mb 55f 52f
6:18 6 7 mph 1017.4mb 55f 52f
6:12 6 7 mph 1017.3mb 55f 52f
6:06 5 6 mph 1017.5mb 55f 52f
6:00 5 6 mph 1017.4mb 55f 52f
5:54 5 6 mph 1017.4mb 55f 52f
5:48 5 8 mph 1017.3mb 55f 52f
5:36 3 6 mph 1017.3mb 55f 52f
5:30 5 6 mph 1017.3mb 55f 52f
5:24 6 7 mph 1017.2mb 55f 52f
5:18 3 5 mph 1017.3mb 55f 52f
5:12 3 5 mph 1017.3mb 55f 52f
5:06 5 6 mph 1017.3mb 55f 52f
5:00 5 6 mph 1017.3mb 55f 52f
4:54 5 7 mph 1017.3mb 55f 52f
4:48 6 7 mph 1017.3mb 55f 52f
4:36 5 6 mph 1017.4mb 55f 52f
4:30 6 7 mph 1017.3mb 55f 52f
4:24 5 6 mph 1017.3mb 55f 52f
4:18 5 6 mph 1017.3mb 55f 52f
4:12 5 7 mph 1017.3mb 55f 52f
4:06 5 6 mph 1017.4mb 55f 52f
4:00 3 6 mph 1017.4mb 55f 52f
3:54 3 6 mph 1017.4mb 55f 52f
3:48 2 3 mph 1017.4mb 55f 52f
3:36 3 6 mph 1017.3mb 55f 52f
3:30 5 7 mph 1017.4mb 55f 52f
3:24 6 7 mph 1017.4mb 55f 51f
3:18 5 6 mph 1017.5mb 55f 51f
3:12 5 7 mph 1017.5mb 55f 51f
3:06 5 7 mph 1017.4mb 55f 51f
3:00 6 7 mph 1017.5mb 55f 51f
2:54 6 7 mph 1017.5mb 55f 51f
2:48 6 7 mph 1017.6mb 55f 51f
2:36 7 9 mph 1017.8mb 55f 51f
2:30 7 9 mph 1017.7mb 55f 51f
2:24 7 9 mph 1017.6mb 55f 51f
2:18 7 9 mph 1017.6mb 55f 51f
2:12 6 8 mph 1017.6mb 55f 51f
2:06 5 7 mph 1017.6mb 55f 51f
2:00 6 7 mph 1017.5mb 55f 51f
1:54 5 7 mph 1017.6mb 55f 51f
1:48 5 6 mph 1017.7mb 55f 51f
1:36 5 7 mph 1017.7mb 56f 52f
1:30 6 7 mph 1017.8mb 56f 52f
1:24 6 7 mph 1017.8mb 56f 52f
1:18 5 7 mph 1017.9mb 56f 52f
1:12 6 7 mph 1018mb 56f 52f
1:06 5 7 mph 1018mb 56f 52f
1:00 6 8 mph 1018mb 56f 52f
12:54 6 7 mph 1018mb 56f 52f
12:48 5 7 mph 1018mb 56f 52f
12:36 5 6 mph 1018mb 56f 52f
12:30 5 7 mph 1018mb 56f 52f
12:24 5 7 mph 1017.9mb 56f 52f
12:18 5 6 mph 1017.9mb 56f 52f
12:12 5 6 mph 1017.9mb 56f 52f
12:06 5 6 mph 1017.9mb 56f 52f
12:00 5 7 mph 1017.9mb 56f 52f
ven. 09/22 11:54 6 6 mph 1017.9mb 56f 52f
11:48 3 6 mph 1017.9mb 56f 52f
11:36 6 6 mph 1017.9mb 56f 52f
11:30 5 6 mph 1017.8mb 56f 52f
11:24 5 6 mph 1017.8mb 56f 52f
11:18 5 6 mph 1017.8mb 56f 52f
11:12 5 6 mph 1017.9mb 56f 52f
11:06 2 3 mph 1017.9mb 56f 52f
11:00 3 3 mph 1017.9mb 56f 52f
10:54 2 2 mph 1017.8mb 56f 52f
10:48 2 3 mph 1017.7mb 56f 52f
10:36 2 2 mph 1017.7mb 56f 52f
10:30 2 3 mph 1017.7mb 56f 53f
10:24 2 2 mph 1017.8mb 56f 52f
10:18 2 3 mph 1017.7mb 56f 53f
10:12 2 5 mph 1017.7mb 56f 53f
10:06 3 5 mph 1017.7mb 56f 53f
10:00 3 5 mph 1017.6mb 56f 53f
9:54 5 5 mph 1017.6mb 56f 53f
9:48 3 5 mph 1017.7mb 56f 53f
9:36 5 6 mph 1017.7mb 56f 53f
9:30 3 5 mph 1017.7mb 56f 53f
9:24 2 3 mph 1017.7mb 56f 53f
9:18 2 3 mph 1017.7mb 56f 53f
9:12 2 3 mph 1017.7mb 56f 53f
9:06 2 3 mph 1017.7mb 56f 53f
9:00 2 3 mph 1017.7mb 56f 53f
8:54  -  1 mph 1017.7mb 56f 53f
8:48 1 2 mph 1017.7mb 56f 54f
8:36  -  2 mph 1017.8mb 56f 54f
8:30 2 2 mph 1017.7mb 56f 54f
8:24 1 2 mph 1017.8mb 56f 54f
8:18 1 2 mph 1017.8mb 56f 54f
8:12 1 2 mph 1017.8mb 56f 54f
8:06 2 3 mph 1017.8mb 56f 54f
8:00 1 2 mph 1017.7mb 56f 54f
7:54 1 2 mph 1017.7mb 56f 54f
7:48 2 5 mph 1017.8mb 56f 54f
7:36 2 3 mph 1017.9mb 56f 54f
7:30 3 5 mph 1017.7mb 56f 54f
7:24 2 5 mph 1017.7mb 56f 54f
7:18 3 6 mph 1017.7mb 56f 54f
7:12 5 5 mph 1017.7mb 56f 54f
7:06 5 6 mph 1017.7mb 56f 54f
7:00 3 5 mph 1017.7mb 56f 54f
6:54 3 5 mph 1017.8mb 56f 54f
6:36 5 6 mph 1017.8mb 56f 54f
6:30 3 5 mph 1017.7mb 56f 54f
6:24 3 5 mph 1017.7mb 56f 54f
6:18 3 3 mph 1017.7mb 55f 54f
6:12 2 5 mph 1017.7mb 55f 54f
6:06 3 3 mph 1017.7mb 55f 54f
6:00 2 3 mph 1017.8mb 55f 54f
5:54 2 2 mph 1017.7mb 55f 55f
5:48 2 2 mph 1017.6mb 55f 54f
5:36 2 3 mph 1017.6mb 55f 54f
5:30 2 3 mph 1017.7mb 55f 53f
5:24  -  1 mph 1017.7mb 55f 54f
5:18  -  1 mph 1017.7mb 55f 53f
5:12 1 3 mph 1017.7mb 55f 53f
5:06 3 6 mph 1017.8mb 55f 53f
5:00 3 5 mph 1017.8mb 55f 53f
4:54 3 5 mph 1017.7mb 55f 53f
4:48 3 6 mph 1017.8mb 56f 53f
4:36 3 5 mph 1017.7mb 56f 53f
4:30 3 5 mph 1017.7mb 56f 53f
4:24 5 5 mph 1017.8mb 56f 53f
4:18 3 5 mph 1017.8mb 56f 53f
4:12 3 6 mph 1017.8mb 56f 53f
4:06 3 5 mph 1017.7mb 56f 53f
4:00 3 5 mph 1017.8mb 56f 53f
3:54 3 5 mph 1017.8mb 56f 53f
3:48 5 6 mph 1017.8mb 56f 52f
3:36 6 7 mph 1017.9mb 56f 52f
3:30 6 7 mph 1017.9mb 56f 52f
3:24 5 5 mph 1017.9mb 56f 52f
3:18 5 7 mph 1017.9mb 56f 53f
3:12 5 6 mph 1017.9mb 56f 52f
3:06 3 6 mph 1018mb 56f 52f
3:00 6 6 mph 1017.9mb 56f 52f
2:54 5 7 mph 1018mb 56f 52f
2:48 5 6 mph 1018mb 56f 52f
2:36 5 6 mph 1017.9mb 56f 52f
2:30 3 6 mph 1017.9mb 56f 52f
2:24 3 5 mph 1017.8mb 56f 52f
2:18 5 6 mph 1017.8mb 56f 52f
2:12 5 6 mph 1017.8mb 56f 52f
2:06 3 5 mph 1017.8mb 55f 52f
2:00 2 5 mph 1017.9mb 56f 51f
1:54 5 6 mph 1018mb 56f 52f
1:48 5 6 mph 1018.1mb 55f 51f
1:36 3 7 mph 1018mb 56f 51f
1:30 5 7 mph 1018.1mb 56f 51f
1:24 6 6 mph 1018.1mb 56f 51f
1:18 5 6 mph 1018.2mb 56f 51f
1:12 3 5 mph 1018.1mb 56f 51f
1:06 6 7 mph 1018.2mb 56f 51f
1:00 6 7 mph 1018.2mb 56f 51f
12:54 3 8 mph 1018.1mb 55f 51f
12:48 5 6 mph 1018.1mb 55f 51f
12:36 3 5 mph 1018.1mb 55f 51f
12:30 3 6 mph 1018mb 55f 51f
12:24 5 6 mph 1018mb 56f 51f
12:18 3 7 mph 1018mb 56f 51f
12:12 6 6 mph 1018mb 56f 51f
12:06 5 6 mph 1018.1mb 55f 51f
12:00 5 6 mph 1018mb 55f 51f
11:54 5 6 mph 1018mb 55f 51f
11:48 5 6 mph 1017.9mb 55f 50f
11:36 5 5 mph 1017.9mb 55f 50f
11:30 3 6 mph 1017.8mb 55f 51f
11:24 2 3 mph 1017.8mb 55f 51f
11:18 2 3 mph 1017.8mb 55f 51f
11:12 3 6 mph 1017.9mb 56f 50f
11:06 3 5 mph 1017.9mb 56f 51f
11:00 5 6 mph 1017.9mb 56f 50f
10:54 5 6 mph 1018mb 56f 50f
10:48 5 7 mph 1018mb 55f 50f
10:36 5 6 mph 1018.1mb 54f 50f
10:30 3 3 mph 1018mb 54f 50f
10:24 2 3 mph 1018mb 54f 50f
10:18 3 5 mph 1018.1mb 54f 50f
10:12 1 2 mph 1018.1mb 54f 50f
10:06 1 3 mph 1018.2mb 54f 50f
10:00 2 2 mph 1018.2mb 54f 50f
9:54 2 3 mph 1018.2mb 54f 49f
9:48 2 5 mph 1018.1mb 54f 49f
9:36 3 5 mph 1018.1mb 54f 47f
9:30 2 5 mph 1018.1mb 54f 47f
9:24 2 5 mph 1018mb 54f 46f
9:18 2 6 mph 1018mb 54f 46f
9:12 3 7 mph 1018mb 54f 45f
9:06 5 7 mph 1018mb 54f 45f
9:00 5 7 mph 1018mb 53f 45f
8:54 6 7 mph 1018mb 53f 44f
8:48 5 8 mph 1017.9mb 53f 44f
8:36 7 9 mph 1017.9mb 53f 44f
8:30 6 8 mph 1017.8mb 53f 43f
8:24 6 8 mph 1017.8mb 53f 43f
8:18 6 9 mph 1017.7mb 53f 42f
8:12 7 9 mph 1017.8mb 53f 42f
8:06 8 10 mph 1017.7mb 54f 42f
8:00 8 10 mph 1017.6mb 54f 42f
7:54 8 10 mph 1017.6mb 55f 42f
7:48 7 8 mph 1017.6mb 55f 42f
7:36 7 9 mph 1017.6mb 55f 42f
7:30 7 9 mph 1017.6mb 54f 42f
7:24 8 10 mph 1017.7mb 54f 42f
7:18 7 9 mph 1017.7mb 54f 42f
7:12 8 10 mph 1017.6mb 54f 42f
7:06 7 9 mph 1017.5mb 54f 42f
7:00 7 10 mph 1017.5mb 54f 42f
6:54 8 10 mph 1017.5mb 55f 42f
6:48 7 9 mph 1017.5mb 54f 42f
6:36 7 8 mph 1017.5mb 54f 42f
6:30 8 10 mph 1017.5mb 55f 42f
6:24 7 8 mph 1017.5mb 55f 42f
6:18 8 10 mph 1017.5mb 55f 42f
6:12 8 9 mph 1017.4mb 55f 42f
6:06 8 10 mph 1017.4mb 55f 42f
6:00 8 10 mph 1017.4mb 55f 42f
5:54 8 10 mph 1017.3mb 55f 42f
5:48 9 10 mph 1017.3mb 55f 42f
5:36 8 10 mph 1017.1mb 54f 42f
5:30 9 11 mph 1017.1mb 55f 42f
5:24 9 10 mph 1017.1mb 55f 43f
5:18 8 10 mph 1017.2mb 55f 43f
5:12 8 10 mph 1017.2mb 55f 43f
5:06 8 10 mph 1017.2mb 55f 43f
5:00 8 10 mph 1017.1mb 55f 43f
4:54 8 10 mph 1017.1mb 55f 43f
4:48 7 9 mph 1017.2mb 54f 44f
4:36 7 9 mph 1017.1mb 54f 44f
4:30 7 9 mph 1017mb 54f 44f
4:24 8 10 mph 1017.1mb 55f 44f
4:18 7 9 mph 1017mb 55f 43f
4:12 7 9 mph 1017.1mb 55f 43f
4:06 8 10 mph 1017.1mb 55f 44f
4:00 8 9 mph 1017.1mb 55f 44f
3:54 8 10 mph 1017.1mb 55f 44f
3:48 8 10 mph 1017mb 55f 44f
3:36 9 11 mph 1017.1mb 55f 44f
3:30 9 13 mph 1017mb 55f 44f
3:24 10 11 mph 1017mb 55f 44f
3:18 9 11 mph 1016.9mb 55f 45f
3:12 9 11 mph 1016.9mb 55f 45f
3:06 9 11 mph 1016.9mb 55f 45f
3:00 8 10 mph 1016.9mb 55f 45f
2:54 8 10 mph 1016.9mb 55f 45f
2:48 7 10 mph 1016.9mb 55f 45f
2:36 8 10 mph 1017mb 55f 45f
2:30 8 11 mph 1017mb 55f 45f
2:24 8 10 mph 1017mb 55f 45f
2:18 8 11 mph 1017mb 55f 45f
2:12 9 13 mph 1017mb 55f 45f
2:06 9 10 mph 1017mb 55f 45f
2:00 8 10 mph 1017.1mb 55f 45f
1:54 7 10 mph 1017.1mb 55f 46f
1:48 8 9 mph 1017.1mb 55f 46f
1:36 8 10 mph 1017.1mb 55f 46f
1:30 8 9 mph 1017.1mb 55f 46f
1:24 8 10 mph 1017mb 55f 47f
1:18 9 11 mph 1017.1mb 55f 46f
1:12 8 9 mph 1017.1mb 55f 46f
1:06 8 10 mph 1017mb 55f 46f
1:00 8 10 mph 1017mb 55f 46f
12:54 7 10 mph 1017mb 54f 46f
12:48 7 10 mph 1017mb 54f 47f
12:36 8 11 mph 1017mb 54f 47f
12:30 8 11 mph 1016.9mb 54f 47f
12:24 7 9 mph 1016.9mb 54f 47f
12:18 7 9 mph 1016.9mb 54f 47f
12:12 7 9 mph 1016.9mb 54f 47f